Time,TemperatureF,DewpointF,PressureIn,WindDirection,WindDirectionDegrees,WindSpeedMPH,WindSpeedGustMPH,Humidity,HourlyPrecipIn,Conditions,Clouds,dailyrainin,SoftwareType,DateUTC
2013-03-11 00:02:00,19.0,14.0,30.38,SE,129,0.0,0.0,80,-99.99,,,-99.99,,2013-03-11 06:02:00,
2013-03-11 00:22:00,20.0,15.0,30.37,South,172,3.0,0.0,80,-99.99,,,-99.99,,2013-03-11 06:22:00,
2013-03-11 00:32:00,19.0,14.0,30.37,SE,125,0.0,0.0,82,-99.99,,,-99.99,,2013-03-11 06:32:00,
2013-03-11 00:52:00,19.0,14.0,30.37,SE,128,0.0,0.0,80,-99.99,,,-99.99,,2013-03-11 06:52:00,
2013-03-11 01:02:00,19.0,15.0,30.36,South,172,1.0,0.0,83,-99.99,,,-99.99,,2013-03-11 07:02:00,
2013-03-11 01:32:00,18.0,13.0,30.37,SSW,212,1.0,0.0,81,-99.99,,,-99.99,,2013-03-11 07:32:00,
2013-03-11 01:52:00,18.0,14.0,30.37,SSE,162,1.0,0.0,84,-99.99,,,-99.99,,2013-03-11 07:52:00,
2013-03-11 02:02:00,17.0,13.0,30.37,SW,222,0.0,0.0,85,-99.99,,,-99.99,,2013-03-11 08:02:00,
2013-03-11 02:21:00,17.0,14.0,30.37,SW,222,0.0,0.0,87,-99.99,,,-99.99,,2013-03-11 08:21:00,
2013-03-11 02:32:00,17.0,14.0,30.37,SE,141,0.0,0.0,87,-99.99,,,-99.99,,2013-03-11 08:32:00,
2013-03-11 02:52:00,17.0,14.0,30.37,SE,141,0.0,0.0,88,-99.99,,,-99.99,,2013-03-11 08:52:00,
2013-03-11 03:02:00,17.0,14.0,30.37,SE,141,0.0,0.0,88,-99.99,,,-99.99,,2013-03-11 09:02:00,
2013-03-11 03:22:00,16.0,13.0,30.36,SE,141,0.0,0.0,88,-99.99,,,-99.99,,2013-03-11 09:22:00,
2013-03-11 03:32:00,16.0,13.0,30.36,SE,141,0.0,0.0,87,-99.99,,,-99.99,,2013-03-11 09:32:00,
2013-03-11 03:52:00,15.0,13.0,30.36,SE,141,0.0,0.0,90,-99.99,,,-99.99,,2013-03-11 09:52:00,
2013-03-11 04:02:00,15.0,13.0,30.35,SE,141,0.0,0.0,90,-99.99,,,-99.99,,2013-03-11 10:02:00,
2013-03-11 04:32:00,14.0,12.0,30.34,SE,141,0.0,0.0,91,-99.99,,,-99.99,,2013-03-11 10:32:00,
2013-03-11 04:52:00,14.0,12.0,30.34,SW,225,0.0,0.0,91,-99.99,,,-99.99,,2013-03-11 10:52:00,
2013-03-11 05:02:00,13.0,11.0,30.33,SW,225,0.0,0.0,92,-99.99,,,-99.99,,2013-03-11 11:02:00,
2013-03-11 05:22:00,13.0,11.0,30.34,SE,128,0.0,0.0,93,-99.99,,,-99.99,,2013-03-11 11:22:00,
2013-03-11 05:32:00,13.0,11.0,30.34,SE,129,0.0,0.0,91,-99.99,,,-99.99,,2013-03-11 11:32:00,
2013-03-11 05:52:00,13.0,11.0,30.35,SE,130,0.0,0.0,91,-99.99,,,-99.99,,2013-03-11 11:52:00,
2013-03-11 06:02:00,13.0,11.0,30.36,SE,129,0.0,0.0,92,-99.99,,,-99.99,,2013-03-11 12:02:00,
2013-03-11 06:22:00,13.0,11.0,30.37,SE,127,0.0,0.0,92,-99.99,,,-99.99,,2013-03-11 12:22:00,
2013-03-11 07:02:00,13.0,11.0,30.38,ESE,107,1.0,0.0,91,-99.99,,,-99.99,,2013-03-11 13:02:00,
2013-03-11 07:32:00,13.0,11.0,30.39,ESE,108,0.0,0.0,92,-99.99,,,-99.99,,2013-03-11 13:32:00,
2013-03-11 07:52:00,14.0,12.0,30.40,ENE,67,0.0,0.0,90,-99.99,,,-99.99,,2013-03-11 13:52:00,
2013-03-11 08:02:00,13.0,11.0,30.39,ENE,67,0.0,0.0,90,-99.99,,,-99.99,,2013-03-11 14:02:00,
2013-03-11 08:53:00,14.0,12.0,30.40,ENE,70,0.0,0.0,92,-99.99,,,-99.99,,2013-03-11 14:53:00,
2013-03-11 09:02:00,19.0,17.0,30.41,ENE,69,0.0,0.0,90,-99.99,,,-99.99,,2013-03-11 15:02:00,
2013-03-11 09:12:00,19.0,17.0,30.41,ENE,69,0.0,0.0,90,-99.99,,,-99.99,,2013-03-11 15:12:00,
2013-03-11 09:32:00,23.0,18.0,30.39,SW,217,3.0,0.0,80,-99.99,,,-99.99,,2013-03-11 15:32:00,
2013-03-11 10:02:00,29.0,20.0,30.38,SW,226,0.0,0.0,68,-99.99,,,-99.99,,2013-03-11 16:02:00,
2013-03-11 10:12:00,29.0,20.0,30.38,SW,226,0.0,0.0,68,-99.99,,,-99.99,,2013-03-11 16:12:00,
2013-03-11 10:22:00,30.0,19.0,30.37,South,177,1.0,0.0,64,-99.99,,,-99.99,,2013-03-11 16:22:00,
2013-03-11 10:32:00,32.0,20.0,30.37,North,4,1.0,0.0,60,-99.99,,,-99.99,,2013-03-11 16:32:00,
2013-03-11 10:42:00,32.0,20.0,30.37,North,4,1.0,0.0,60,-99.99,,,-99.99,,2013-03-11 16:42:00,
2013-03-11 10:52:00,32.0,19.0,30.36,SE,146,1.0,0.0,59,-99.99,,,-99.99,,2013-03-11 16:52:00,
2013-03-11 11:02:00,34.0,20.0,30.34,NE,46,2.0,0.0,56,-99.99,,,-99.99,,2013-03-11 17:02:00,
2013-03-11 11:13:00,34.0,20.0,30.34,NE,46,2.0,0.0,56,-99.99,,,-99.99,,2013-03-11 17:13:00,
2013-03-11 11:23:00,34.0,20.0,30.34,NE,39,1.0,0.0,55,-99.99,,,-99.99,,2013-03-11 17:23:00,
2013-03-11 11:34:00,38.0,20.0,30.32,North,359,0.0,0.0,47,-99.99,,,-99.99,,2013-03-11 17:34:00,
2013-03-11 11:42:00,38.0,20.0,30.32,North,359,0.0,0.0,47,-99.99,,,-99.99,,2013-03-11 17:42:00,
2013-03-11 11:52:00,39.0,18.0,30.32,North,355,3.0,0.0,43,-99.99,,,-99.99,,2013-03-11 17:52:00,
2013-03-11 12:02:00,40.0,19.0,30.32,East,91,0.0,0.0,43,-99.99,,,-99.99,,2013-03-11 18:02:00,
2013-03-11 12:11:00,40.0,19.0,30.32,East,91,0.0,0.0,43,-99.99,,,-99.99,,2013-03-11 18:11:00,
2013-03-11 12:22:00,41.0,21.0,30.32,NE,42,3.0,0.0,44,-99.99,,,-99.99,,2013-03-11 18:22:00,
2013-03-11 12:32:00,42.0,22.0,30.32,NE,54,4.0,0.0,44,-99.99,,,-99.99,,2013-03-11 18:32:00,
2013-03-11 12:42:00,42.0,22.0,30.32,NE,54,4.0,0.0,44,-99.99,,,-99.99,,2013-03-11 18:42:00,
2013-03-11 12:52:00,43.0,20.0,30.31,SE,143,2.0,0.0,40,-99.99,,,-99.99,,2013-03-11 18:52:00,
2013-03-11 13:02:00,44.0,21.0,30.30,NE,41,2.0,0.0,40,-99.99,,,-99.99,,2013-03-11 19:02:00,
2013-03-11 13:12:00,44.0,21.0,30.30,NE,41,2.0,0.0,40,-99.99,,,-99.99,,2013-03-11 19:12:00,
2013-03-11 13:22:00,44.0,21.0,30.29,ENE,64,4.0,0.0,40,-99.99,,,-99.99,,2013-03-11 19:22:00,
2013-03-11 13:32:00,44.0,21.0,30.28,NNE,32,4.0,0.0,40,-99.99,,,-99.99,,2013-03-11 19:32:00,
2013-03-11 13:42:00,44.0,21.0,30.28,NNE,32,4.0,0.0,40,-99.99,,,-99.99,,2013-03-11 19:42:00,
2013-03-11 13:52:00,44.0,21.0,30.28,NNE,32,4.0,0.0,40,-99.99,,,-99.99,,2013-03-11 19:52:00,
2013-03-11 14:02:00,44.0,21.0,30.25,East,93,4.0,0.0,40,-99.99,,,-99.99,,2013-03-11 20:02:00,
2013-03-11 14:11:00,44.0,21.0,30.25,East,93,4.0,0.0,40,-99.99,,,-99.99,,2013-03-11 20:11:00,
2013-03-11 14:22:00,45.0,23.0,30.25,North,349,2.0,0.0,41,-99.99,,,-99.99,,2013-03-11 20:22:00,
2013-03-11 14:32:00,45.0,23.0,30.25,East,86,1.0,0.0,41,-99.99,,,-99.99,,2013-03-11 20:32:00,
2013-03-11 14:42:00,45.0,23.0,30.25,East,86,1.0,0.0,41,-99.99,,,-99.99,,2013-03-11 20:42:00,
2013-03-11 14:52:00,44.0,22.0,30.24,ENE,60,4.0,0.0,42,-99.99,,,-99.99,,2013-03-11 20:52:00,
2013-03-11 15:02:00,44.0,22.0,30.23,NNW,335,3.0,0.0,41,-99.99,,,-99.99,,2013-03-11 21:02:00,
2013-03-11 15:12:00,44.0,22.0,30.23,NNW,335,3.0,0.0,41,-99.99,,,-99.99,,2013-03-11 21:12:00,
2013-03-11 15:22:00,44.0,22.0,30.24,North,357,3.0,0.0,42,-99.99,,,-99.99,,2013-03-11 21:22:00,
2013-03-11 15:32:00,44.0,22.0,30.24,NW,307,4.0,0.0,41,-99.99,,,-99.99,,2013-03-11 21:32:00,
2013-03-11 15:42:00,44.0,22.0,30.24,NW,307,4.0,0.0,41,-99.99,,,-99.99,,2013-03-11 21:42:00,
2013-03-11 15:52:00,45.0,22.0,30.23,NW,317,4.0,0.0,39,-99.99,,,-99.99,,2013-03-11 21:52:00,
2013-03-11 16:02:00,45.0,22.0,30.23,WNW,301,5.0,0.0,40,-99.99,,,-99.99,,2013-03-11 22:02:00,
2013-03-11 16:11:00,45.0,22.0,30.23,WNW,301,5.0,0.0,40,-99.99,,,-99.99,,2013-03-11 22:11:00,
2013-03-11 16:22:00,45.0,22.0,30.23,WNW,297,3.0,0.0,40,-99.99,,,-99.99,,2013-03-11 22:22:00,
2013-03-11 16:32:00,46.0,24.0,30.22,West,272,2.0,0.0,41,-99.99,,,-99.99,,2013-03-11 22:32:00,
2013-03-11 16:43:00,46.0,24.0,30.22,West,272,2.0,0.0,41,-99.99,,,-99.99,,2013-03-11 22:43:00,
2013-03-11 16:52:00,46.0,24.0,30.22,West,272,2.0,0.0,41,-99.99,,,-99.99,,2013-03-11 22:52:00,
2013-03-11 17:02:00,45.0,22.0,30.22,NW,326,2.0,0.0,40,-99.99,,,-99.99,,2013-03-11 23:02:00,
2013-03-11 17:12:00,45.0,22.0,30.22,NW,326,2.0,0.0,40,-99.99,,,-99.99,,2013-03-11 23:12:00,
2013-03-11 17:22:00,45.0,22.0,30.21,WNW,302,3.0,0.0,39,-99.99,,,-99.99,,2013-03-11 23:22:00,
2013-03-11 17:32:00,47.0,23.0,30.21,West,281,2.0,0.0,38,-99.99,,,-99.99,,2013-03-11 23:32:00,
2013-03-11 17:42:00,47.0,23.0,30.21,West,281,2.0,0.0,38,-99.99,,,-99.99,,2013-03-11 23:42:00,
2013-03-11 17:52:00,48.0,21.0,30.21,WSW,238,5.0,0.0,34,-99.99,,,-99.99,,2013-03-11 23:52:00,
2013-03-11 18:02:00,47.0,22.0,30.21,WNW,297,4.0,0.0,37,-99.99,,,-99.99,,2013-03-12 00:02:00,
2013-03-11 18:12:00,47.0,22.0,30.21,WNW,297,4.0,0.0,37,-99.99,,,-99.99,,2013-03-12 00:12:00,
2013-03-11 18:22:00,46.0,22.0,30.21,WSW,237,1.0,0.0,38,-99.99,,,-99.99,,2013-03-12 00:22:00,
2013-03-11 18:32:00,45.0,22.0,30.21,SSW,205,3.0,0.0,40,-99.99,,,-99.99,,2013-03-12 00:32:00,
2013-03-11 18:42:00,45.0,22.0,30.21,SSW,205,3.0,0.0,40,-99.99,,,-99.99,,2013-03-12 00:42:00,
2013-03-11 18:52:00,45.0,23.0,30.21,SW,224,1.0,0.0,41,-99.99,,,-99.99,,2013-03-12 00:52:00,
2013-03-11 19:02:00,45.0,22.0,30.21,SW,215,0.0,0.0,39,-99.99,,,-99.99,,2013-03-12 01:02:00,
2013-03-11 19:11:00,45.0,22.0,30.21,SW,215,0.0,0.0,39,-99.99,,,-99.99,,2013-03-12 01:11:00,
2013-03-11 19:22:00,45.0,22.0,30.21,SW,215,0.0,0.0,39,-99.99,,,-99.99,,2013-03-12 01:22:00,
2013-03-11 19:32:00,41.0,23.0,30.21,East,89,0.0,0.0,48,-99.99,,,-99.99,,2013-03-12 01:32:00,
2013-03-11 19:42:00,41.0,23.0,30.21,East,89,0.0,0.0,48,-99.99,,,-99.99,,2013-03-12 01:42:00,
2013-03-11 19:52:00,38.0,23.0,30.22,East,93,0.0,0.0,54,-99.99,,,-99.99,,2013-03-12 01:52:00,
2013-03-11 20:02:00,35.0,23.0,30.23,East,100,0.0,0.0,62,-99.99,,,-99.99,,2013-03-12 02:02:00,
2013-03-11 20:22:00,33.0,23.0,30.23,East,100,0.0,0.0,66,-99.99,,,-99.99,,2013-03-12 02:22:00,
2013-03-11 20:32:00,32.0,23.0,30.23,East,100,0.0,0.0,69,-99.99,,,-99.99,,2013-03-12 02:32:00,
2013-03-11 20:52:00,32.0,23.0,30.24,SE,141,0.0,0.0,70,-99.99,,,-99.99,,2013-03-12 02:52:00,
2013-03-11 21:02:00,31.0,23.0,30.25,SE,141,1.0,0.0,72,-99.99,,,-99.99,,2013-03-12 03:02:00,
2013-03-11 21:12:00,31.0,23.0,30.25,SE,141,1.0,0.0,72,-99.99,,,-99.99,,2013-03-12 03:12:00,
2013-03-11 21:22:00,31.0,22.0,30.26,East,98,0.0,0.0,70,-99.99,,,-99.99,,2013-03-12 03:22:00,
2013-03-11 21:32:00,29.0,22.0,30.27,East,99,0.0,0.0,75,-99.99,,,-99.99,,2013-03-12 03:32:00,
2013-03-11 21:52:00,29.0,22.0,30.27,East,99,0.0,0.0,75,-99.99,,,-99.99,,2013-03-12 03:52:00,
2013-03-11 22:02:00,30.0,24.0,30.27,SSE,150,0.0,0.0,77,-99.99,,,-99.99,,2013-03-12 04:02:00,
2013-03-11 22:12:00,30.0,24.0,30.27,SSE,150,0.0,0.0,77,-99.99,,,-99.99,,2013-03-12 04:12:00,
2013-03-11 22:22:00,30.0,23.0,30.27,SSE,149,0.0,0.0,74,-99.99,,,-99.99,,2013-03-12 04:22:00,
2013-03-11 22:32:00,31.0,23.0,30.27,ESE,114,1.0,0.0,71,-99.99,,,-99.99,,2013-03-12 04:32:00,
2013-03-11 22:42:00,31.0,23.0,30.27,ESE,114,1.0,0.0,71,-99.99,,,-99.99,,2013-03-12 04:42:00,
2013-03-11 22:52:00,31.0,22.0,30.27,East,101,0.0,0.0,69,-99.99,,,-99.99,,2013-03-12 04:52:00,
2013-03-11 23:02:00,31.0,22.0,30.27,SSW,205,0.0,0.0,69,-99.99,,,-99.99,,2013-03-12 05:02:00,
2013-03-11 23:11:00,31.0,22.0,30.27,SSW,205,0.0,0.0,69,-99.99,,,-99.99,,2013-03-12 05:11:00,
2013-03-11 23:21:00,31.0,23.0,30.27,NNE,21,3.0,0.0,71,-99.99,,,-99.99,,2013-03-12 05:21:00,
2013-03-11 23:32:00,30.0,23.0,30.28,SSW,211,0.0,0.0,75,-99.99,,,-99.99,,2013-03-12 05:32:00,
2013-03-11 23:42:00,30.0,23.0,30.28,SSW,211,0.0,0.0,75,-99.99,,,-99.99,,2013-03-12 05:42:00,
2013-03-11 23:52:00,29.0,22.0,30.27,South,191,0.0,0.0,76,-99.99,,,-99.99,,2013-03-12 05:52:00,